Home   Weather   Esbjerg   Past weeks

Flag for Denmark Past Weather in Esbjerg, Denmark — Yesterday and Last 2 Weeks

Now
37 °F

Passing clouds.


Feels Like: 31 °F
Forecast: 36 / 40 °F
Wind: 8 mph from Southwest

Location: Esbjerg Airport

Current Time: Jan 17, 2017 at 8:24:00 pm

Latest Report: Jan 17, 2017 at 7:50 pm


Visibility: N/A

Pressure: 30.63 "Hg

Humidity: 81%

Dew Point: 32 °F

Location of EsbjergLocation

Past Weather in Esbjerg — Graph

°F

Esbjerg Temperature Yesterday

Maximum temperature yesterday: 36 °F (at 1:50 pm)
Minimum temperature yesterday: 18 °F (at 8:20 am)
Average temperature yesterday: 25 °F

High & Low Weather Summary for the Past Weeks

 TemperatureHumidityPressure
High46 °F (Jan 3, 2:20 pm)100% (Jan 2, 6:20 pm)30.74 "Hg (Jan 2, 6:20 pm)
Low16 °F (Jan 5, 11:50 pm)51% (Jan 4, 8:20 pm)29.15 "Hg (Jan 11, 9:50 am)
Average34 °F85%29.95 "Hg
* Reported Jan 2 6:20 pm — Jan 17 6:50 pm, Esbjerg, Weather by CustomWeather, © 2017

Note: Actual official high and low records may vary slightly from our data, if they occured in-between our weather recording intervals... More about our weather records

Advertising

Esbjerg Weather History for the Previous 24 Hours

Scroll right to see more
 ConditionsComfort  
Time TempWeatherWind HumidityBarometerVisibility
6:50 pm
Tue, Jan 17
36 °FPassing clouds.7 mph81%30.63 "HgN/A
6:20 pm36 °FPassing clouds.7 mph81%30.60 "HgN/A
5:50 pm36 °FPartly cloudy.7 mph81%30.60 "HgN/A
5:20 pm36 °FPassing clouds.7 mph81%30.60 "HgN/A
4:50 pm37 °FOvercast.7 mph75%30.60 "HgN/A
4:20 pm37 °FPartly sunny.7 mph75%30.60 "HgN/A
3:50 pm37 °FPartly sunny.8 mph75%30.60 "HgN/A
3:20 pm37 °FOvercast.8 mph75%30.60 "HgN/A
2:50 pm37 °FOvercast.9 mph75%30.60 "HgN/A
2:20 pm37 °FOvercast.8 mph81%30.60 "HgN/A
1:50 pm36 °FOvercast.3 mph93%30.60 "HgN/A
1:20 pm34 °FOvercast.5 mph93%30.63 "HgN/A
12:50 pm34 °FOvercast.7 mph87%30.63 "HgN/A
12:20 pm34 °FOvercast.6 mph87%30.60 "HgN/A
11:50 am32 °FPartly sunny.7 mph93%30.60 "HgN/A
11:20 am32 °FOvercast.7 mph87%30.60 "HgN/A
10:50 am32 °FOvercast.7 mph87%30.60 "HgN/A
10:20 am30 °FOvercast.8 mph86%30.60 "HgN/A
9:50 am30 °FOvercast.8 mph86%30.60 "HgN/A
9:20 am28 °FOvercast.8 mph86%30.60 "HgN/A
8:50 am28 °FOvercast.7 mph86%30.57 "HgN/A
8:20 am27 °FOvercast.7 mph86%30.57 "HgN/A
7:50 am27 °FPassing clouds.7 mph86%30.57 "HgN/A
7:20 am27 °FPartly cloudy.7 mph86%30.57 "HgN/A
6:50 am27 °FPassing clouds.5 mph86%30.57 "HgN/A
6:20 am27 °FPassing clouds.5 mph86%30.57 "HgN/A
5:50 am25 °FPassing clouds.3 mph86%30.57 "HgN/A
5:20 am23 °FPassing clouds.2 mph93%30.54 "HgN/A
4:50 am23 °FPassing clouds.3 mph93%30.54 "HgN/A
4:20 am25 °FPassing clouds.1 mph93%30.54 "HgN/A
3:50 am25 °FPassing clouds.1 mph93%30.54 "HgN/A
3:20 am23 °FPassing clouds.No wind93%30.54 "HgN/A
2:50 am25 °FPassing clouds.No wind93%30.54 "HgN/A
2:20 am25 °FPassing clouds.1 mph93%30.54 "HgN/A
1:50 am25 °FCold.1 mph93%30.54 "HgN/A
1:20 am23 °FCold.1 mph93%30.54 "HgN/A
12:50 am25 °FCold.1 mph93%30.54 "HgN/A
12:20 am23 °FCold.2 mph93%30.54 "HgN/A
11:50 pm
Mon, Jan 16
23 °FCold.2 mph93%30.51 "HgN/A
11:20 pm23 °FCold.2 mph93%30.51 "HgN/A
10:50 pm23 °FCold.2 mph93%30.51 "HgN/A
10:20 pm23 °FCold.3 mph93%30.51 "HgN/A
9:50 pm25 °FCold.2 mph93%30.51 "HgN/A
9:20 pm23 °FCold.2 mph93%30.48 "HgN/A
8:50 pm23 °FCold.5 mph93%30.48 "HgN/A
8:20 pm23 °FCold.5 mph93%30.48 "HgN/A
Weather by CustomWeather, © 2017

See weather overviewHow to use our weather pages